[Date Prev][Date Next][Thread Prev][Thread Next] - [Date Index][Thread Index][Author Index]

2 Line ISS Keps 10-25



ISS
1 25544U 98067A   01298.18304398  .00061761  00000-0  80238-3 0  6459
2 25544  51.6384 154.8797 0008634 241.7570 261.8494 15.58168394167364


----
Via the sarex mailing list at AMSAT.ORG courtesy of AMSAT-NA.
To unsubscribe, send "unsubscribe sarex" to Majordomo@amsat.org



AMSAT Top AMSAT Home